SUR4097 SACO-SARI

Flight info

Callsign SUR4097
Flight time N/A
Altitude 39000
Route TREJO1G TREJO UL531 ERE UW14 POS
Aircraft A20N/M-SDE2E3FGHIRWXY/LB1

Departure

Time 2026-05-01 13:54
Airport Ingeniero Aeronáutico Ambrosio L.V. Taravella International Airport (SACO)

Arrival

Time N/A
Airport Cataratas Del Iguazú International Airport (SARI)
Time Latitude Longitude Altitude Speed Heading
2026-05-01 13:32 -31.31551 -64.21179 1613 ft 0 kts 267°
2026-05-01 13:42 -31.31550 -64.21165 1613 ft 2 kts 267°
2026-05-01 13:42 -31.31549 -64.21148 1613 ft 2 kts 267°
2026-05-01 13:43 -31.31549 -64.21130 1613 ft 2 kts 267°
2026-05-01 13:43 -31.31548 -64.21113 1613 ft 2 kts 267°
2026-05-01 13:43 -31.31551 -64.21097 1613 ft 2 kts 313°
2026-05-01 13:43 -31.31565 -64.21088 1613 ft 2 kts 359°
2026-05-01 13:44 -31.31580 -64.21089 1613 ft 2 kts 353°
2026-05-01 13:44 -31.31594 -64.21087 1613 ft 1 kts 356°
2026-05-01 13:44 -31.31596 -64.21087 1613 ft 0 kts 357°
2026-05-01 13:48 -31.31587 -64.21088 1613 ft 2 kts 356°
2026-05-01 13:48 -31.31557 -64.21084 1613 ft 5 kts 14°
2026-05-01 13:48 -31.31510 -64.21066 1613 ft 8 kts 31°
2026-05-01 13:49 -31.31467 -64.21004 1613 ft 11 kts 77°
2026-05-01 13:49 -31.31464 -64.20924 1613 ft 8 kts 86°
2026-05-01 13:49 -31.31426 -64.20858 1613 ft 11 kts 32°
2026-05-01 13:49 -31.31344 -64.20828 1613 ft 13 kts
2026-05-01 13:50 -31.31241 -64.20829 1613 ft 15 kts 359°
2026-05-01 13:50 -31.31124 -64.20830 1613 ft 17 kts 359°
2026-05-01 13:50 -31.30997 -64.20833 1613 ft 18 kts 359°
2026-05-01 13:50 -31.30862 -64.20835 1613 ft 20 kts 359°
2026-05-01 13:51 -31.30717 -64.20838 1613 ft 21 kts 359°
2026-05-01 13:51 -31.30569 -64.20841 1613 ft 21 kts 359°
2026-05-01 13:51 -31.30419 -64.20844 1613 ft 21 kts 359°
2026-05-01 13:51 -31.30275 -64.20846 1613 ft 20 kts 359°
2026-05-01 13:52 -31.30132 -64.20849 1613 ft 20 kts 359°
2026-05-01 13:52 -31.29993 -64.20851 1613 ft 19 kts 359°
2026-05-01 13:52 -31.29860 -64.20853 1613 ft 17 kts 359°
2026-05-01 13:52 -31.29755 -64.20855 1613 ft 12 kts 359°
2026-05-01 13:53 -31.29681 -64.20861 1613 ft 9 kts 347°
2026-05-01 13:53 -31.29595 -64.20851 1613 ft 7 kts 156°
2026-05-01 13:53 -31.29678 -64.20856 1613 ft 32 kts 181°
2026-05-01 13:54 -31.30176 -64.20847 1613 ft 106 kts 179°
2026-05-01 13:54 -31.31117 -64.20826 1621 ft 163 kts 178°
2026-05-01 13:54 -31.32309 -64.20779 2088 ft 174 kts 178°
2026-05-01 13:54 -31.33520 -64.20554 2701 ft 183 kts 153°
2026-05-01 13:55 -31.34374 -64.19527 3428 ft 180 kts 115°
2026-05-01 13:55 -31.34863 -64.18063 3683 ft 208 kts 109°
2026-05-01 13:55 -31.35326 -64.16358 4015 ft 233 kts 107°
2026-05-01 13:55 -31.35874 -64.14534 4692 ft 243 kts 111°
2026-05-01 13:56 -31.36515 -64.12730 5513 ft 246 kts 114°
2026-05-01 13:56 -31.37231 -64.10883 6333 ft 250 kts 116°
2026-05-01 13:56 -31.37974 -64.09045 7107 ft 256 kts 117°
2026-05-01 13:56 -31.38748 -64.07166 7848 ft 261 kts 117°
2026-05-01 13:57 -31.39437 -64.05212 8549 ft 267 kts 105°
2026-05-01 13:57 -31.39702 -64.03017 9158 ft 277 kts 91°
2026-05-01 13:57 -31.39694 -64.00716 9568 ft 294 kts 88°
2026-05-01 13:57 -31.39627 -63.98241 9963 ft 311 kts 87°
2026-05-01 13:58 -31.39561 -63.95689 10462 ft 323 kts 88°
2026-05-01 13:58 -31.39504 -63.93000 10827 ft 341 kts 88°
2026-05-01 13:58 -31.39457 -63.90158 11145 ft 359 kts 88°
2026-05-01 13:58 -31.39415 -63.87190 11566 ft 372 kts 88°
2026-05-01 13:59 -31.39375 -63.84121 12193 ft 379 kts 88°
2026-05-01 13:59 -31.39334 -63.81052 12865 ft 382 kts 88°
2026-05-01 13:59 -31.39290 -63.77909 13538 ft 387 kts 88°
2026-05-01 13:59 -31.39246 -63.74766 14182 ft 392 kts 88°
2026-05-01 14:00 -31.39199 -63.71577 14865 ft 395 kts 88°
2026-05-01 14:00 -31.39152 -63.68338 15552 ft 399 kts 88°
2026-05-01 14:00 -31.38980 -63.65127 16204 ft 400 kts 78°
2026-05-01 14:00 -31.38083 -63.62028 16879 ft 398 kts 59°
2026-05-01 14:01 -31.36530 -63.59410 17544 ft 395 kts 46°
2026-05-01 14:01 -31.34724 -63.56965 18179 ft 399 kts 45°
2026-05-01 14:01 -31.32873 -63.54510 18775 ft 403 kts 45°
2026-05-01 14:01 -31.31042 -63.52038 19358 ft 408 kts 45°
2026-05-01 14:02 -31.29186 -63.49489 19962 ft 412 kts 46°
2026-05-01 14:02 -31.27276 -63.47007 20539 ft 412 kts 38°
2026-05-01 14:02 -31.24932 -63.45124 21133 ft 405 kts 21°
2026-05-01 14:02 -31.22317 -63.44085 21735 ft 397 kts
2026-05-01 14:03 -31.19577 -63.43544 22327 ft 399 kts
2026-05-01 14:03 -31.16812 -63.43060 22870 ft 403 kts
2026-05-01 14:03 -31.14023 -63.42562 23432 ft 406 kts
2026-05-01 14:03 -31.11218 -63.42036 24003 ft 409 kts
2026-05-01 14:04 -31.08407 -63.41500 24523 ft 413 kts
2026-05-01 14:04 -31.05569 -63.40871 25010 ft 419 kts
2026-05-01 14:04 -31.02715 -63.40151 25507 ft 422 kts
2026-05-01 14:04 -30.99806 -63.39413 25986 ft 425 kts
2026-05-01 14:05 -30.96903 -63.38677 26451 ft 428 kts
2026-05-01 14:05 -30.93991 -63.37941 26890 ft 431 kts
2026-05-01 14:05 -30.91058 -63.37200 27314 ft 434 kts
2026-05-01 14:05 -30.88075 -63.36446 27691 ft 438 kts
2026-05-01 14:06 -30.85110 -63.35700 28101 ft 441 kts
2026-05-01 14:06 -30.82098 -63.34896 28481 ft 447 kts
2026-05-01 14:06 -30.79162 -63.33510 28804 ft 463 kts 21°
2026-05-01 14:06 -30.76438 -63.31354 29185 ft 476 kts 33°
2026-05-01 14:07 -30.74154 -63.28562 29590 ft 487 kts 45°
2026-05-01 14:07 -30.72141 -63.25406 30005 ft 488 kts 48°
2026-05-01 14:07 -30.70159 -63.22164 30366 ft 489 kts 48°
2026-05-01 14:08 -30.66193 -63.15702 31045 ft 488 kts 47°
2026-05-01 14:08 -30.64203 -63.12501 31420 ft 487 kts 47°
2026-05-01 14:08 -30.62212 -63.09320 31768 ft 486 kts 46°
2026-05-01 14:08 -30.60196 -63.06114 32103 ft 486 kts 46°
2026-05-01 14:09 -30.58211 -63.02965 32417 ft 486 kts 46°
2026-05-01 14:09 -30.56215 -62.99801 32800 ft 484 kts 46°
2026-05-01 14:09 -30.54232 -62.96660 33117 ft 484 kts 45°
2026-05-01 14:09 -30.52222 -62.93481 33448 ft 483 kts 45°
2026-05-01 14:10 -30.50260 -62.90379 33827 ft 481 kts 45°
2026-05-01 14:10 -30.48286 -62.87259 34188 ft 480 kts 45°
2026-05-01 14:10 -30.46324 -62.84161 34545 ft 479 kts 45°
2026-05-01 14:10 -30.44322 -62.81003 34889 ft 478 kts 45°
2026-05-01 14:11 -30.42365 -62.77920 35161 ft 478 kts 44°
2026-05-01 14:11 -30.38414 -62.71701 35817 ft 476 kts 44°
2026-05-01 14:11 -30.36459 -62.68627 36096 ft 475 kts 44°
2026-05-01 14:12 -30.34516 -62.65581 36363 ft 475 kts 44°
2026-05-01 14:12 -30.32531 -62.62484 36581 ft 475 kts 44°
2026-05-01 14:12 -30.30555 -62.59404 36796 ft 476 kts 44°
2026-05-01 14:12 -30.28582 -62.56326 37059 ft 475 kts 43°
2026-05-01 14:13 -30.26585 -62.53214 37315 ft 475 kts 43°
2026-05-01 14:13 -30.24616 -62.50148 37543 ft 474 kts 43°
2026-05-01 14:13 -30.22628 -62.47055 37763 ft 474 kts 43°
2026-05-01 14:13 -30.20658 -62.43993 37969 ft 474 kts 43°
2026-05-01 14:14 -30.18705 -62.40960 38188 ft 474 kts 43°
2026-05-01 14:14 -30.16729 -62.37893 38377 ft 474 kts 43°
2026-05-01 14:14 -30.14752 -62.34828 38517 ft 475 kts 42°
2026-05-01 14:14 -30.12754 -62.31732 38635 ft 476 kts 42°
2026-05-01 14:15 -30.10782 -62.28679 38737 ft 477 kts 43°
2026-05-01 14:15 -30.08780 -62.25582 38844 ft 478 kts 43°
2026-05-01 14:15 -30.04816 -62.19448 38879 ft 477 kts 43°
2026-05-01 14:16 -30.00828 -62.13287 38879 ft 477 kts 42°
2026-05-01 14:16 -29.96858 -62.07171 38879 ft 477 kts 42°
2026-05-01 14:17 -29.92870 -62.01034 38883 ft 478 kts 43°
2026-05-01 14:17 -29.89084 -61.94572 38887 ft 489 kts 50°
2026-05-01 14:18 -29.86004 -61.87517 38884 ft 500 kts 59°
2026-05-01 14:18 -29.84000 -61.81165 38877 ft 506 kts 64°
2026-05-01 14:19 -29.81477 -61.72158 38886 ft 506 kts 64°
2026-05-01 14:19 -29.79281 -61.64403 38880 ft 506 kts 64°
2026-05-01 14:20 -29.75938 -61.52766 38883 ft 506 kts 64°
2026-05-01 14:21 -29.73691 -61.44981 38882 ft 507 kts 64°
2026-05-01 14:21 -29.71459 -61.37271 38881 ft 508 kts 64°
2026-05-01 14:22 -29.68096 -61.25675 38878 ft 508 kts 63°
2026-05-01 14:22 -29.65857 -61.17985 38876 ft 507 kts 63°
2026-05-01 14:23 -29.63597 -61.10247 38878 ft 508 kts 63°
2026-05-01 14:23 -29.61347 -61.02563 38883 ft 509 kts 63°
2026-05-01 14:24 -29.59100 -60.94892 38882 ft 509 kts 63°
2026-05-01 14:24 -29.56837 -60.87192 38886 ft 508 kts 63°
2026-05-01 14:25 -29.54572 -60.79535 38887 ft 508 kts 63°
2026-05-01 14:25 -29.52260 -60.71854 38904 ft 508 kts 63°
2026-05-01 14:26 -29.48800 -60.60393 38902 ft 510 kts 63°
2026-05-01 14:27 -29.46471 -60.52686 38906 ft 510 kts 63°
2026-05-01 14:27 -29.44155 -60.45036 38904 ft 510 kts 63°
2026-05-01 14:28 -29.40665 -60.33498 38898 ft 512 kts 63°
2026-05-01 14:28 -29.38353 -60.25782 38899 ft 511 kts 63°
2026-05-01 14:29 -29.36022 -60.18043 38899 ft 511 kts 63°
2026-05-01 14:30 -29.31353 -60.02612 38900 ft 511 kts 63°
2026-05-01 14:31 -29.27821 -59.90989 38903 ft 513 kts 63°
2026-05-01 14:31 -29.25474 -59.83287 38904 ft 513 kts 63°
2026-05-01 14:32 -29.23124 -59.75595 38905 ft 513 kts 63°
2026-05-01 14:32 -29.20614 -59.67968 38905 ft 507 kts 57°
2026-05-01 14:33 -29.17456 -59.60837 38904 ft 501 kts 52°
2026-05-01 14:33 -29.14083 -59.53784 38904 ft 501 kts 52°
2026-05-01 14:34 -29.10747 -59.46775 38902 ft 501 kts 52°
2026-05-01 14:34 -29.07424 -59.39771 38900 ft 503 kts 52°
2026-05-01 14:35 -29.04090 -59.32733 38894 ft 502 kts 52°
2026-05-01 14:35 -29.00768 -59.25742 38896 ft 502 kts 52°
2026-05-01 14:36 -28.97447 -59.18752 38896 ft 500 kts 52°
2026-05-01 14:36 -28.94132 -59.11801 38898 ft 500 kts 52°
2026-05-01 14:37 -28.90781 -59.04787 38898 ft 502 kts 52°
2026-05-01 14:37 -28.87432 -58.97779 38904 ft 502 kts 52°
2026-05-01 14:38 -28.84107 -58.90783 38906 ft 502 kts 53°
2026-05-01 14:38 -28.80822 -58.83752 38919 ft 502 kts 53°
2026-05-01 14:39 -28.77540 -58.76751 38921 ft 504 kts 53°
2026-05-01 14:39 -28.74234 -58.69712 38923 ft 503 kts 53°
2026-05-01 14:40 -28.70919 -58.62669 38928 ft 501 kts 53°
2026-05-01 14:40 -28.67636 -58.55716 38929 ft 500 kts 53°
2026-05-01 14:41 -28.64327 -58.48725 38930 ft 502 kts 53°
2026-05-01 14:41 -28.60965 -58.41752 38927 ft 501 kts 52°
2026-05-01 14:42 -28.57578 -58.34854 38933 ft 500 kts 52°
2026-05-01 14:42 -28.54176 -58.27942 38927 ft 501 kts 52°
2026-05-01 14:43 -28.50774 -58.21029 38934 ft 502 kts 52°
2026-05-01 14:43 -28.47378 -58.14123 38931 ft 502 kts 52°
2026-05-01 14:44 -28.43970 -58.07212 38928 ft 502 kts 52°
2026-05-01 14:44 -28.38846 -57.96835 38921 ft 502 kts 52°
2026-05-01 14:45 -28.33709 -57.86467 38923 ft 502 kts 52°
2026-05-01 14:46 -28.30267 -57.79531 38923 ft 504 kts 52°
2026-05-01 14:46 -28.25133 -57.69153 38920 ft 503 kts 52°
2026-05-01 14:47 -28.21723 -57.62265 38920 ft 502 kts 52°
2026-05-01 14:48 -28.16585 -57.51888 38921 ft 502 kts 52°
2026-05-01 14:48 -28.11439 -57.41481 38920 ft 503 kts 52°
2026-05-01 14:49 -28.04568 -57.27634 38917 ft 502 kts 52°
2026-05-01 14:50 -27.97654 -57.13755 38920 ft 504 kts 51°
2026-05-01 14:51 -27.92489 -57.03408 38920 ft 503 kts 52°
2026-05-01 14:52 -27.87264 -56.92979 38928 ft 503 kts 52°
2026-05-01 14:53 -27.82072 -56.82629 38951 ft 503 kts 52°
2026-05-01 14:53 -27.78623 -56.75765 38957 ft 502 kts 52°
2026-05-01 14:54 -27.75157 -56.68888 38951 ft 503 kts 52°
2026-05-01 14:54 -27.71684 -56.62002 38954 ft 503 kts 52°
2026-05-01 14:55 -27.68221 -56.55150 38956 ft 502 kts 52°
2026-05-01 14:55 -27.64760 -56.48314 38955 ft 503 kts 52°
2026-05-01 14:56 -27.61253 -56.41393 38958 ft 502 kts 52°
2026-05-01 14:56 -27.57785 -56.34567 38954 ft 502 kts 52°
2026-05-01 14:57 -27.54298 -56.27707 38965 ft 503 kts 52°
2026-05-01 14:57 -27.49083 -56.17465 38972 ft 500 kts 52°
2026-05-01 14:58 -27.45625 -56.10699 38974 ft 501 kts 52°
2026-05-01 14:58 -27.42150 -56.04013 38975 ft 498 kts 48°
2026-05-01 14:59 -27.37794 -55.98107 38982 ft 478 kts 33°
2026-05-01 14:59 -27.32554 -55.93705 38985 ft 461 kts 18°
2026-05-01 15:00 -27.26834 -55.90533 38390 ft 460 kts 14°
2026-05-01 15:00 -27.23912 -55.89019 37456 ft 465 kts 14°
2026-05-01 15:00 -27.20975 -55.87492 36459 ft 469 kts 14°
2026-05-01 15:01 -27.18001 -55.85930 35529 ft 471 kts 15°
2026-05-01 15:01 -27.15035 -55.84360 34810 ft 467 kts 15°
2026-05-01 15:01 -27.12114 -55.82805 34214 ft 462 kts 15°
2026-05-01 15:01 -27.09235 -55.81269 33658 ft 455 kts 15°
2026-05-01 15:02 -27.06393 -55.79758 33104 ft 450 kts 16°
2026-05-01 15:02 -27.04497 -55.78749 32762 ft 445 kts 16°
2026-05-01 15:02 -27.00785 -55.76776 32001 ft 442 kts 15°
2026-05-01 15:02 -26.98006 -55.75305 31289 ft 443 kts 16°
2026-05-01 15:03 -26.95199 -55.73822 30557 ft 446 kts 16°
2026-05-01 15:03 -26.92387 -55.72337 29784 ft 448 kts 16°
2026-05-01 15:03 -26.89568 -55.70847 29015 ft 451 kts 16°
2026-05-01 15:03 -26.86679 -55.69319 28404 ft 449 kts 17°
2026-05-01 15:04 -26.83815 -55.67800 27907 ft 444 kts 17°
2026-05-01 15:04 -26.80947 -55.66278 27466 ft 438 kts 17°
2026-05-01 15:04 -26.78858 -55.65171 27132 ft 434 kts 17°